Temperature
27 27 27 28 29 29 29 28 27 28 29 28 27 25 24 23 23 22 21 19 19 18 16 16 15 15 15 15 15 15 15 15 15 15 15 15 14 14 14 14 14 14 14 14
27 27 28 30 30 29 29 28 28 29 29 28 27 25 25 24 24 22 21 19 18 18 16 15 15 15 15 14 14 14 15 15 15 14 14 14 14 14 14 14 14 14 13 13
27 28 30 29 29 28 28 28 28 28 28 28 27 25 24 24 24 23 21 20 19 18 16 16 15 14 14 14 14 14 14 14 14 14 14 14 14 13 13 13 13 13 13 13
28 29 29 28 28 28 28 29 29 28 28 27 26 24 24 23 23 22 21 20 19 18 16 16 15 14 14 14 14 14 14 14 14 14 14 13 13 13 13 13 13 12 12 12
28 29 29 28 29 29 28 29 29 28 27 26 25 24 23 23 22 21 21 20 18 17 17 16 15 14 14 13 13 13 13 13 13 13 13 13 13 12 12 12 12 12 12 11
29 30 29 29 29 29 29 29 28 27 27 25 24 23 22 22 21 21 20 19 18 17 16 15 15 14 14 13 13 13 12 12 12 12 12 12 12 12 12 12 11 11 11 11
27 28 29 29 28 29 28 26 24 23 23 23 24 24 23 23 22 21 20 19 17 16 16 15 14 14 13 13 12 12 12 12 12 12 12 12 12 12 11 11 11 11 11 11
24 25 28 29 28 27 27 26 23 21 21 21 22 22 22 23 22 21 19 18 17 16 15 14 14 13 13 12 12 12 11 11 11 11 11 11 11 11 11 11 11 10 10 10
24 25 27 29 29 28 26 26 25 24 23 22 21 21 21 22 21 20 18 17 16 15 15 14 14 13 13 12 12 11 11 11 11 11 11 11 11 11 10 10 10 10 10 10
25 24 27 28 29 29 28 26 25 24 22 21 21 21 20 20 19 19 18 17 16 15 14 14 13 13 12 12 11 11 11 10 10 10 10 10 10 10 10 10 10 10 9 9
26 25 26 27 27 26 27 26 25 25 24 23 21 20 21 19 19 19 18 17 15 14 14 13 13 12 12 12 11 11 10 10 10 10 10 10 10 10 10 9 9 9 9 9
27 25 24 25 27 27 27 26 26 24 23 24 22 20 21 21 19 18 17 16 15 14 13 13 12 12 12 11 11 10 10 10 10 10 10 9 9 9 9 9 9 9 9 9
26 24 23 23 24 25 25 26 26 25 23 22 21 20 21 20 19 18 16 15 14 14 13 13 12 12 11 11 11 10 10 10 10 10 9 9 9 9 9 9 9 8 9 8
24 24 22 21 22 23 24 25 26 25 23 22 21 20 19 19 18 17 16 15 14 13 13 12 12 11 11 11 10 10 10 10 10 9 9 9 9 9 8 8 8 8 8 8
24 23 23 23 24 24 24 25 25 24 23 22 21 21 20 19 18 16 15 14 14 13 12 12 12 11 11 11 10 10 10 10 9 9 9 9 8 8 8 8 8 8 8 8
24 23 23 23 24 24 24 25 25 24 24 23 22 20 20 18 17 16 15 14 13 13 12 12 11 11 11 10 10 10 9 9 9 9 9 9 8 8 8 8 8 8 8 8
24 22 22 23 24 24 23 23 24 23 23 23 21 20 19 18 17 16 15 14 13 13 12 12 11 11 10 10 10 10 9 9 9 9 9 8 8 8 8 8 8 8 8 8
23 23 23 23 23 21 22 24 24 23 23 22 21 20 19 18 16 15 14 14 13 13 12 11 11 10 10 10 10 9 9 9 9 9 9 8 8 8 8 8 8 8 8 8
24 23 22 22 22 21 22 24 24 22 21 22 21 20 19 17 16 15 14 14 13 12 12 11 11 10 10 10 9 9 9 9 9 9 9 8 8 8 8 8 8 8 8 8
24 23 22 22 21 20 21 24 23 22 20 21 20 19 18 18 16 15 14 13 12 12 11 11 10 10 9 9 9 9 9 9 9 9 9 8 8 8 8 8 8 8 8 8
23 23 22 22 21 20 22 23 23 20 19 20 19 19 18 17 16 14 13 13 12 11 11 10 10 10 9 9 9 9 9 9 9 9 8 8 8 8 8 8 8 8 8 8
23 22 22 22 21 20 22 22 21 19 19 19 19 18 16 15 14 13 13 12 11 11 10 10 10 9 9 9 9 9 9 9 9 8 8 8 8 8 8 8 8 8 8 8
23 22 22 21 20 20 21 20 19 19 19 19 18 17 16 15 14 13 12 12 11 11 10 10 10 9 9 9 9 9 9 9 8 8 8 8 8 8 8 8 8 8 9 9
23 23 23 22 21 21 20 20 19 19 18 18 18 17 16 15 14 13 12 11 11 11 10 10 10 10 9 9 9 9 9 8 8 8 8 8 8 8 8 8 9 9 9 9
23 23 22 21 21 21 20 20 19 18 18 17 17 16 16 15 14 13 12 12 11 11 10 10 10 10 9 9 9 9 9 9 9 9 9 9 9 9 9 9 9 9 9 9
23 22 22 21 21 21 20 19 19 18 18 17 17 16 15 14 14 13 12 12 11 11 10 10 10 10 10 9 9 9 9 9 9 9 9 9 9 9 9 9 9 9 9 9
Wind_Speed
12 12 11 13 15 13 10 9 10 12 11 10 10 12 13 15 14 13 13 12 11 11 11 11 10 9 8 8 7 6 6 5 4 3 2 2 2 2 3 4 5 5 5 5
10 14 13 11 9 10 10 10 10 8 10 9 9 12 14 14 14 14 14 13 12 12 12 11 10 9 9 8 6 6 6 5 4 4 2 2 2 2 3 3 4 5 5 6
12 8 8 7 7 8 9 9 9 8 9 9 7 10 12 13 12 12 12 12 12 13 12 11 10 9 9 8 7 6 6 5 5 3 2 2 2 1 2 2 3 4 5 6
9 5 4 6 9 10 10 9 8 8 9 8 9 9 10 11 11 11 11 12 12 13 12 11 11 10 9 8 7 7 6 5 5 4 4 3 3 3 3 2 2 3 4 5
7 6 6 9 10 7 8 6 7 9 10 9 8 8 6 8 10 11 12 13 13 12 12 12 11 10 9 8 7 7 6 5 5 5 5 4 5 3 3 2 2 2 3 4
7 4 5 5 6 5 6 7 7 8 9 12 9 8 7 8 12 10 11 10 12 13 11 11 11 10 8 8 7 7 6 5 5 5 5 5 5 4 4 4 3 2 3 4
7 7 6 5 6 6 7 6 4 6 7 9 7 5 2 6 9 10 12 12 11 12 11 10 10 10 8 7 7 7 6 5 5 5 5 5 4 3 4 4 4 4 4 4
6 7 7 6 6 6 7 7 6 6 6 6 5 2 2 6 9 11 13 13 12 12 11 10 9 9 8 7 7 6 6 5 5 5 4 4 4 3 4 4 4 4 4 4
4 6 8 7 7 7 6 6 7 8 8 7 4 2 3 7 10 13 14 14 12 11 11 10 9 8 8 7 6 6 6 5 5 4 3 4 4 4 4 4 4 4 4 4
4 5 7 7 7 8 6 5 4 6 5 6 5 4 3 5 7 10 12 13 12 12 11 10 9 8 7 7 6 6 6 5 4 4 3 4 4 4 4 5 5 5 5 5
4 5 6 5 6 6 6 6 5 6 7 6 5 1 4 7 7 8 10 10 12 12 11 10 8 8 7 7 7 5 5 5 4 4 5 4 4 4 4 4 5 4 4 4
3 4 6 7 4 4 7 6 6 6 7 7 5 1 4 6 8 8 9 10 11 12 10 10 9 7 7 7 6 6 5 4 4 4 5 5 4 5 5 5 4 3 3 4
5 3 5 5 2 4 6 6 6 5 5 6 6 1 6 8 8 9 9 11 10 10 9 9 8 7 6 6 6 5 5 5 4 5 6 5 5 5 5 4 3 3 3 3
3 4 5 5 5 5 6 7 5 5 5 4 3 3 6 8 9 8 9 10 10 9 8 8 8 7 6 6 5 6 5 5 5 5 6 5 4 4 4 3 4 4 3 3
2 5 5 7 7 6 8 7 5 4 4 4 1 2 6 7 9 9 10 10 10 9 8 8 8 6 6 6 5 5 5 4 4 5 5 4 3 3 3 3 4 4 5 5
1 4 6 7 6 6 6 5 4 4 3 1 2 5 7 9 9 8 9 9 9 9 9 8 7 7 7 6 5 5 5 4 4 4 4 4 3 3 2 2 3 4 4 5
3 4 6 7 5 5 4 3 2 2 4 4 2 5 8 9 8 8 8 9 9 9 9 9 8 7 6 5 5 5 5 4 4 4 3 3 2 2 2 3 4 4 4 5
3 4 5 6 6 5 0 3 3 2 4 5 6 8 7 7 8 7 7 7 8 8 8 8 8 7 6 5 5 5 5 4 4 4 3 3 2 3 3 3 4 4 4 4
3 4 5 5 4 3 1 1 1 2 4 5 6 8 8 9 8 7 7 7 8 8 8 8 8 8 6 6 5 5 5 4 4 4 3 3 2 3 3 3 3 3 2 2
5 5 6 5 4 3 1 3 3 2 2 5 5 6 7 7 5 6 8 8 9 9 9 8 9 8 7 6 6 6 5 4 3 3 3 3 2 1 2 2 2 2 1 1
5 6 6 6 3 0 3 3 2 1 2 4 5 5 6 4 4 10 11 10 10 10 10 9 9 8 7 6 6 5 5 4 4 3 3 2 1 1 2 1 1 2 1 1
3 3 3 4 2 1 5 3 4 5 4 5 6 7 9 10 12 13 12 11 11 11 10 9 8 7 7 6 6 6 5 4 4 3 3 2 1 0 2 1 1 1 1 1
1 1 2 2 4 5 7 7 7 5 5 5 7 9 11 11 12 12 12 11 11 10 9 8 9 8 7 7 6 6 5 4 4 3 3 2 1 0 1 0 1 1 2 2
3 2 2 3 6 6 6 7 7 6 6 6 8 10 11 12 12 12 11 11 10 10 9 8 8 8 8 7 6 5 5 5 4 3 3 2 2 1 1 1 1 1 2 2
1 2 3 4 5 5 6 7 7 7 7 8 9 9 10 12 12 12 11 10 10 9 8 8 7 8 8 7 6 6 6 5 4 3 3 3 2 1 1 1 1 2 3 3
1 1 2 3 4 4 6 7 7 7 7 8 9 10 11 11 12 11 10 9 9 9 8 7 7 8 8 8 7 6 6 5 4 3 3 3 3 3 3 3 3 1 2 2
Wind_Direction
209 226 229 220 217 234 238 224 213 203 187 198 192 161 170 174 171 165 159 156 152 143 131 125 120 117 107 94 87 75 66 53 49 51 57 73 74 74 72 66 51 37 19 356
213 226 234 231 221 244 253 235 218 189 178 198 184 167 178 180 180 173 166 160 158 147 136 135 129 121 110 98 90 83 70 58 55 58 50 63 70 72 73 58 48 26 14 4
226 222 212 228 218 235 250 239 224 197 181 204 203 192 184 180 183 177 168 162 155 149 147 140 133 125 117 106 93 83 70 59 52 51 66 71 80 62 46 40 51 26 18 22
228 219 196 221 235 227 244 241 232 225 219 216 209 226 200 183 185 179 172 167 160 152 148 145 136 126 119 115 103 89 77 63 51 47 52 56 63 50 33 30 41 26 25 25
229 198 207 226 238 234 253 271 247 241 242 246 230 239 223 181 190 192 182 174 159 154 147 142 134 128 122 115 106 96 87 73 57 52 54 47 51 42 34 31 35 31 36 33
252 222 221 240 253 252 268 269 270 262 252 250 247 236 220 193 197 191 180 163 153 145 140 132 128 124 120 114 108 102 94 82 69 60 57 55 52 42 30 27 26 30 47 36
250 227 219 239 248 233 246 255 265 268 260 265 288 257 210 182 177 171 160 150 149 144 141 133 130 127 121 113 105 102 95 84 72 68 62 56 44 47 42 22 27 32 41 38
259 241 225 215 241 258 251 247 245 255 269 283 306 300 101 123 128 134 141 141 142 144 140 134 131 130 124 117 111 106 98 87 77 73 60 53 33 38 41 30 25 35 33 35
282 247 242 235 238 253 252 258 256 267 267 267 248 194 119 105 115 126 135 138 142 141 137 136 133 132 132 126 118 113 111 98 86 81 71 62 49 41 39 35 37 39 31 28
253 264 241 230 240 249 264 276 286 273 274 274 259 187 159 146 140 135 139 141 141 139 138 135 130 129 127 124 116 114 113 106 100 88 68 72 55 50 45 43 48 42 32 26
266 265 267 250 250 265 266 269 281 285 293 299 298 46 133 158 149 146 142 138 142 141 141 136 130 128 129 128 126 126 121 117 106 93 79 68 55 50 53 53 50 40 26 18
294 292 286 277 287 297 277 284 292 296 302 310 311 73 100 124 131 136 135 129 129 132 132 132 132 131 135 134 132 127 122 115 107 98 86 70 58 52 55 55 45 39 28 19
339 307 284 282 305 320 292 289 292 296 297 306 306 109 110 116 117 125 129 125 125 126 130 134 134 134 135 133 128 126 122 112 103 95 91 76 60 58 58 53 40 40 37 26
315 288 291 290 289 285 285 293 304 304 295 311 328 140 140 125 121 124 129 132 131 133 134 140 139 140 140 133 133 131 119 113 109 99 98 89 75 62 57 48 38 34 32 32
286 275 265 259 269 274 288 301 310 313 307 305 301 146 145 137 136 136 135 136 136 137 138 141 141 142 138 132 128 125 119 111 103 105 106 100 90 73 63 50 39 31 20 32
206 289 290 272 255 267 292 309 317 330 339 348 90 99 116 126 127 131 138 144 146 148 149 145 142 142 138 136 137 128 122 115 110 109 110 105 89 70 69 69 52 41 28 24
211 248 277 281 274 277 287 321 328 350 0 354 29 116 132 136 136 142 149 156 159 157 152 148 146 138 130 126 132 133 125 122 122 121 112 111 109 85 59 55 54 39 32 29
272 276 280 277 277 272 279 29 58 45 45 60 94 119 132 131 128 132 142 149 152 152 145 142 139 135 127 124 128 128 129 127 128 123 109 101 96 84 63 54 49 38 35 30
222 266 283 283 273 268 175 349 26 61 49 71 105 115 118 122 125 127 137 140 141 139 134 132 133 132 131 134 136 138 133 134 134 124 114 103 82 73 64 58 45 33 28 15
204 221 253 270 289 286 352 25 53 106 115 80 103 124 136 151 162 152 144 135 133 129 129 131 135 134 137 138 142 142 142 140 131 118 111 103 90 89 74 61 31 1 359 3
223 224 246 265 270 27 6 0 343 284 95 88 102 119 135 142 124 134 140 134 133 130 134 137 138 140 144 146 146 146 140 132 123 110 105 104 93 127 112 73 358 302 337 27
239 261 265 281 267 16 16 39 60 88 95 96 108 111 109 109 117 129 134 133 134 137 141 142 140 140 145 147 145 144 137 131 127 121 115 112 107 325 113 101 296 287 274 241
189 349 6 39 85 88 62 76 92 103 103 107 116 117 121 125 132 135 135 137 141 143 143 145 144 143 147 149 148 146 143 142 139 127 119 134 157 78 58 169 249 257 257 261
174 168 146 121 123 116 101 97 97 99 105 109 114 122 130 132 134 136 139 142 144 143 146 149 148 145 145 149 152 151 152 155 152 148 156 175 178 175 158 302 309 331 354 352
92 156 156 146 141 129 116 107 108 109 110 113 119 126 131 134 137 139 141 145 147 146 148 153 153 150 148 151 155 158 158 161 162 170 182 193 193 197 159 131 7 13 37 45
344 131 181 146 133 131 124 126 127 125 125 128 129 128 132 137 140 140 142 145 147 148 152 155 158 157 157 161 161 165 166 168 176 189 202 209 208 201 207 187 181 183 195 169
Height
1492 1493 1489 1483 1480 1479 1479 1483 1486 1484 1480 1487 1493 1501 1506 1510 1514 1517 1522 1527 1530 1532 1535 1537 1540 1542 1544 1545 1546 1547 1547 1548 1549 1550 1551 1551 1552 1552 1552 1552 1552 1552 1552 1552
1488 1488 1480 1474 1474 1476 1477 1482 1483 1480 1480 1485 1491 1500 1502 1506 1510 1514 1519 1524 1528 1531 1535 1538 1540 1542 1543 1544 1546 1547 1547 1548 1549 1549 1550 1551 1551 1552 1552 1551 1551 1551 1551 1551
1484 1478 1474 1474 1477 1481 1480 1481 1481 1482 1481 1485 1492 1502 1503 1504 1508 1513 1518 1522 1527 1530 1534 1537 1540 1542 1543 1544 1546 1547 1547 1547 1548 1549 1550 1550 1551 1551 1551 1551 1550 1550 1550 1550
1477 1474 1475 1478 1479 1480 1483 1473 1474 1479 1486 1493 1496 1510 1504 1503 1507 1512 1517 1521 1526 1530 1533 1536 1539 1541 1543 1545 1546 1546 1547 1548 1548 1549 1549 1550 1550 1550 1550 1550 1550 1549 1549 1549
1476 1473 1477 1480 1477 1475 1477 1472 1474 1478 1484 1492 1495 1506 1506 1503 1508 1511 1516 1520 1524 1529 1533 1536 1538 1541 1543 1545 1546 1546 1547 1548 1548 1548 1549 1549 1549 1550 1549 1549 1549 1549 1549 1548
1474 1472 1473 1475 1473 1474 1474 1476 1479 1481 1487 1504 1500 1506 1510 1504 1505 1508 1513 1518 1523 1527 1531 1535 1538 1541 1544 1545 1546 1546 1547 1548 1549 1549 1549 1549 1549 1549 1549 1549 1548 1549 1548 1548
1482 1476 1474 1475 1477 1477 1478 1489 1507 1512 1513 1510 1497 1502 1505 1497 1499 1504 1509 1515 1522 1527 1531 1535 1538 1541 1544 1545 1546 1547 1548 1549 1549 1549 1549 1549 1550 1550 1549 1549 1548 1548 1548 1547
1496 1492 1477 1475 1479 1482 1483 1490 1512 1527 1527 1519 1508 1510 1507 1499 1501 1506 1512 1517 1523 1528 1531 1534 1538 1541 1543 1545 1546 1547 1548 1549 1549 1550 1550 1550 1550 1550 1549 1549 1548 1548 1548 1547
1497 1494 1478 1474 1475 1477 1485 1488 1489 1502 1506 1516 1514 1511 1508 1503 1506 1511 1515 1519 1524 1528 1531 1534 1537 1540 1543 1544 1546 1547 1548 1549 1550 1550 1550 1550 1550 1550 1549 1549 1549 1548 1548 1547
1487 1493 1480 1474 1475 1475 1477 1484 1492 1500 1513 1521 1514 1511 1516 1511 1512 1514 1517 1519 1524 1529 1532 1534 1537 1540 1543 1544 1546 1548 1549 1550 1550 1550 1551 1551 1550 1550 1549 1549 1549 1548 1547 1546
1481 1490 1485 1478 1481 1483 1482 1483 1487 1491 1494 1508 1517 1520 1506 1510 1511 1515 1519 1521 1525 1529 1532 1535 1538 1541 1543 1545 1546 1548 1549 1550 1551 1551 1551 1551 1550 1550 1549 1549 1549 1548 1548 1547
1481 1487 1493 1486 1477 1477 1478 1481 1486 1498 1500 1497 1508 1521 1505 1508 1512 1516 1520 1523 1526 1529 1533 1536 1539 1542 1544 1545 1547 1548 1549 1550 1551 1551 1551 1551 1550 1550 1550 1550 1549 1549 1548 1547
1485 1492 1503 1499 1494 1487 1485 1480 1482 1487 1495 1502 1511 1519 1507 1510 1515 1518 1522 1525 1528 1531 1534 1537 1540 1542 1544 1546 1547 1549 1550 1551 1551 1552 1552 1551 1551 1551 1551 1551 1551 1550 1549 1548
1490 1494 1503 1514 1507 1498 1492 1486 1483 1488 1498 1504 1508 1513 1511 1512 1517 1521 1524 1526 1529 1532 1535 1538 1540 1542 1545 1546 1548 1549 1550 1551 1552 1553 1552 1553 1552 1552 1552 1552 1551 1551 1550 1549
1490 1495 1496 1495 1491 1489 1489 1487 1486 1490 1494 1501 1503 1506 1510 1514 1518 1522 1525 1527 1530 1533 1536 1538 1541 1543 1545 1547 1548 1549 1550 1552 1553 1553 1553 1553 1553 1553 1553 1553 1552 1551 1551 1550
1491 1497 1495 1495 1489 1488 1489 1488 1488 1490 1491 1495 1500 1507 1509 1515 1519 1523 1526 1528 1531 1534 1537 1539 1541 1543 1545 1547 1548 1549 1550 1552 1553 1553 1554 1554 1554 1554 1554 1553 1553 1552 1551 1550
1491 1497 1500 1498 1489 1490 1499 1492 1491 1492 1492 1495 1502 1508 1511 1515 1519 1523 1526 1529 1531 1534 1537 1539 1541 1543 1545 1546 1548 1549 1551 1552 1553 1554 1555 1555 1555 1555 1554 1554 1553 1553 1552 1551
1492 1494 1496 1497 1498 1511 1500 1488 1489 1493 1495 1497 1502 1506 1510 1515 1520 1524 1526 1529 1532 1534 1537 1539 1541 1543 1545 1547 1548 1550 1551 1552 1554 1555 1555 1556 1556 1555 1555 1555 1554 1554 1553 1551
1490 1494 1498 1499 1504 1503 1496 1490 1491 1495 1500 1500 1503 1508 1512 1516 1521 1525 1528 1530 1532 1535 1537 1539 1542 1544 1545 1547 1548 1550 1552 1553 1555 1555 1556 1556 1556 1556 1556 1556 1555 1554 1553 1553
1487 1490 1497 1497 1507 1514 1502 1492 1492 1497 1506 1504 1506 1509 1513 1516 1520 1525 1528 1530 1533 1535 1537 1540 1542 1544 1546 1547 1549 1551 1553 1554 1555 1556 1557 1557 1557 1557 1557 1556 1556 1555 1554 1554
1491 1492 1495 1497 1503 1504 1496 1493 1494 1506 1511 1507 1508 1511 1513 1516 1519 1524 1527 1530 1533 1536 1538 1540 1543 1544 1546 1548 1550 1551 1553 1554 1556 1556 1557 1557 1558 1558 1557 1557 1556 1556 1555 1554
1491 1493 1495 1495 1503 1510 1497 1495 1501 1508 1507 1508 1510 1513 1515 1518 1521 1524 1528 1531 1534 1536 1539 1541 1543 1545 1547 1549 1551 1552 1554 1555 1556 1557 1558 1558 1558 1558 1558 1557 1557 1556 1556 1555
1487 1491 1492 1497 1504 1502 1501 1502 1505 1507 1508 1510 1512 1514 1517 1520 1523 1526 1529 1532 1535 1538 1540 1542 1544 1546 1548 1550 1551 1553 1554 1556 1557 1558 1558 1558 1559 1559 1559 1558 1558 1557 1557 1556
1487 1488 1490 1495 1498 1500 1503 1505 1507 1508 1510 1512 1514 1516 1519 1522 1525 1528 1531 1534 1536 1539 1541 1543 1545 1547 1549 1550 1552 1554 1555 1556 1557 1558 1559 1559 1559 1559 1559 1559 1559 1558 1558 1557
1486 1488 1491 1496 1498 1500 1503 1506 1508 1510 1512 1514 1516 1518 1520 1523 1526 1529 1532 1535 1537 1539 1542 1544 1546 1548 1549 1551 1553 1554 1555 1557 1558 1558 1559 1559 1560 1560 1560 1560 1559 1559 1558 1558
1487 1489 1492 1496 1498 1500 1504 1507 1509 1511 1513 1515 1517 1520 1522 1525 1527 1530 1533 1535 1538 1540 1542 1544 1546 1548 1550 1552 1553 1555 1556 1557 1558 1558 1559 1560 1560 1560 1560 1560 1560 1559 1559 1558